Showing default

GALILEO 13 (26A), 41550

Orbit data source: Space-Track

GALILEO 13 (26A), 41550 is a payload satellite owned by GNSS Agency (ESA) that was launched on Tue, 24 May 2016 UTC via a SOYUZ-ST-B launch vehicle from the French Guiana (FRGUI). Payload-class satellites include a variety of spacecraft equipped with specific instruments for various scientific and technological missions. These include communications satellites like Starlink; space stations such as the ISS; scientific satellites like the Hubble; Earth observation satellites from companies like Planet Labs, Umbra, and HawkEye 360; GPS; miniature CubeSats for education and research; and military/defense satellites.

Loading next visibility...
Identifier
41550, 2016-030B
Orbit
Active
Country
Flag of ESAESA
Related business
Manufacturer
OHB
Mission
Operational Civil Navigation
Bus & Motor
GALILEOSAT, AOCS
Mass
733 kg wet, 660 kg dry
Launch date (UTC)
2016-05-24 (9 years ago)
Launch vehicle
SOYUZ-ST-B
Launch site
French Guiana (FRGUI)
Object type
Payload
Rocket body
Debris
Shape & HBR
Box + 2 Pan, 7.4 m
Radar Cross Section
9.223 m², Large (>1 m²)

Expand to show TLE details & history
Last TLE update: 2 days ago

TLE from 2 days ago
0 GALILEO 13 (26A)
1 41550U 16030B   25259.11878575  .00000017  00000-0  00000-0 0  9998
2 41550  55.1864 229.2291 0003922 246.5431 113.3866  1.70473510 57990
Epoch: 2025-09-16T02:51Z
TLE epoch observation values (Epoch: 2025-09-16T02:51:03.088Z)
Latitude
-0°
Longitude
-168.85427°
Altitude
23,227.118 km
Speed
3.669 km/s
True Right ascension
15h 16m 53s
True Declination
0° 00' 00"
Sunlit
Object was in daylight at epoch
Visualization orbit readout
Latitude
Unknown
Longitude
Unknown
Altitude
Unknown
Speed
Unknown
Apparent Right ascension
Unknown
Apparent Declination
Unknown
Sunlit
N/A
Visualization observer readout
Local Sidereal Time
21:57:55
Azimuth
Unknown
Elevation
Unknown
Doppler factor
Unknown
Orbital elements
Apogee altitude
23,233.851 km
Perigee altitude
23,210.632 km
Semi-major axis
29,600.378 km
Eccentricity
0.00039
Inclination
55.1864°
RAAN
229.2291°
Arg. of periapsis
246.5431°
True anomaly
113.42784°
Mean anomaly
113.3866°
Eccentric anomaly
113.40722°
Mean motion
0.42618 °/min
Orbital period
844.71 mins
BSTAR
0
Loading maneuver chart data...
Computing Atmospheric mass density...
Loading historical data...
Loading historical data...
Loading historical data...
Loading historical data...
Loading historical data...
Loading historical data...
Loading historical data...
Other satellites on launch #30 in the year 2016 (2016-05-24 UTC)

Documentation

Showing up to 5 results
|